Location: Ellerstadt
(49.4644°N, 8.2615°E)
Time: 10:46:05
(UTC+00:00)

USA 186 - Pass Details

Date: 03 March 2021
Orbit: 261 x 430 km, 96.9° (Epoch: 11 April)

Event Time Altitude Azimuth Distance (km) Brightness Sun altitude
Exits shadow 18:28:29 25° 54° (NE) 646 2.3 -13.0°
Drops below altitude 10° 18:30:17 10° 10° (N) 1,181 4.0 -13.3°
Sets 18:32:21 0° 357° (N) 2,047 5.4 -13.6°
